When you browse on this site, cookies collect data to enhance your experience and personalize the content and advertising you see.
Visit our Privacy Policy to learn more. By continuing to use the site, you agree to this use of cookies and data.
  • En España
  • Lista de países
  • Para 7 días
  • Temperatura del agua
  • Mapa Satelital
  • El tiempo en el mapa
  • Informadores
  • user-avatar
    Iniciar sesión

    Tiempo cada hora Krotivshchyna

    Hoy, 25 Marzo, Lunes

    Tiempo Temperatura Precipitaciones Viento Presión Humedad
    00:00 +6°C° 0 mm 2 mps 750 mmHg 71%
    01:00 +5°C° 0 mm 2 mps 750 mmHg 71%
    02:00 +6°C° 0 mm 2 mps 749 mmHg 70%
    03:00 +5°C° 0 mm 2 mps 749 mmHg 73%
    04:00 +5°C° 0 mm 1 mps 749 mmHg 76%
    05:00 +5°C° 0 mm 1 mps 749 mmHg 79%
    06:00 +6°C° 0 mm 1 mps 749 mmHg 76%
    07:00 +6°C° 0 mm 1 mps 749 mmHg 72%
    08:00 +6°C° 0 mm 0 mps 749 mmHg 68%
    09:00 +8°C° 0 mm 1 mps 749 mmHg 62%
    10:00 +10°C° 0 mm 1 mps 749 mmHg 56%
    11:00 +10°C° 0 mm 2 mps 748 mmHg 50%
    12:00 +10°C° 0 mm 2 mps 748 mmHg 48%
    13:00 +12°C° 0 mm 2 mps 748 mmHg 46%
    14:00 +12°C° 0 mm 2 mps 747 mmHg 43%
    15:00 +12°C° 0.1 mm 2 mps 747 mmHg 47%
    16:00 +10°C° 0.1 mm 2 mps 747 mmHg 50%
    17:00 +10°C° 0.1 mm 2 mps 746 mmHg 54%
    18:00 +9°C° 0.5 mm 2 mps 746 mmHg 62%
    19:00 +8°C° 0.5 mm 2 mps 746 mmHg 70%
    20:00 +7°C° 0.5 mm 2 mps 746 mmHg 77%
    21:00 +7°C° 0.5 mm 2 mps 746 mmHg 80%
    22:00 +7°C° 0.5 mm 2 mps 745 mmHg 83%
    23:00 +8°C° 0.5 mm 1 mps 745 mmHg 86%

    Mañana, 26 Marzo, Martes

    Tiempo Temperatura Precipitaciones Viento Presión Humedad
    00:00 +6°C° 0.1 mm 2 mps 745 mmHg 87%
    01:00 +6°C° 0.1 mm 2 mps 745 mmHg 88%
    02:00 +6°C° 0.1 mm 2 mps 745 mmHg 89%
    03:00 +5°C° 0 mm 2 mps 745 mmHg 90%
    04:00 +5°C° 0 mm 2 mps 745 mmHg 90%
    05:00 +4°C° 0 mm 2 mps 745 mmHg 90%
    06:00 +5°C° 0 mm 2 mps 746 mmHg 84%
    07:00 +5°C° 0 mm 3 mps 746 mmHg 78%
    08:00 +5°C° 0 mm 3 mps 747 mmHg 72%
    09:00 +7°C° 0 mm 3 mps 747 mmHg 64%
    10:00 +8°C° 0 mm 3 mps 747 mmHg 57%
    11:00 +9°C° 0 mm 2 mps 747 mmHg 49%
    12:00 +10°C° 0 mm 3 mps 747 mmHg 48%
    13:00 +10°C° 0 mm 4 mps 747 mmHg 47%
    14:00 +10°C° 0 mm 5 mps 747 mmHg 46%
    15:00 +9°C° 0.3 mm 5 mps 747 mmHg 52%
    16:00 +8°C° 0.3 mm 5 mps 747 mmHg 58%
    17:00 +7°C° 0.3 mm 5 mps 747 mmHg 64%
    18:00 +6°C° 0 mm 4 mps 747 mmHg 67%
    19:00 +5°C° 0 mm 3 mps 748 mmHg 71%
    20:00 +5°C° 0 mm 2 mps 748 mmHg 74%
    21:00 +4°C° 0 mm 2 mps 748 mmHg 75%
    22:00 +4°C° 0 mm 2 mps 748 mmHg 76%
    23:00 +3°C° 0 mm 2 mps 749 mmHg 77%

    Pasado mañana, 27 Marzo, Miércoles

    Tiempo Temperatura Precipitaciones Viento Presión Humedad
    00:00 +3°C° 0 mm 2 mps 749 mmHg 77%
    01:00 +2°C° 0 mm 2 mps 749 mmHg 77%
    02:00 +3°C° 0 mm 1 mps 749 mmHg 77%
    03:00 +3°C° 0 mm 1 mps 748 mmHg 78%
    04:00 +3°C° 0 mm 1 mps 748 mmHg 78%
    05:00 +2°C° 0 mm 1 mps 748 mmHg 79%
    06:00 +3°C° 0 mm 1 mps 748 mmHg 75%
    07:00 +3°C° 0 mm 2 mps 748 mmHg 72%
    08:00 +4°C° 0 mm 2 mps 748 mmHg 69%
    09:00 +5°C° 0.2 mm 2 mps 748 mmHg 66%
    10:00 +5°C° 0.2 mm 2 mps 748 mmHg 63%
    11:00 +6°C° 0.2 mm 2 mps 748 mmHg 60%
    12:00 +6°C° 0.3 mm 2 mps 749 mmHg 58%
    13:00 +6°C° 0.3 mm 2 mps 749 mmHg 57%
    14:00 +7°C° 0.3 mm 2 mps 749 mmHg 55%
    15:00 +5°C° 0.4 mm 3 mps 750 mmHg 58%
    16:00 +5°C° 0.4 mm 3 mps 750 mmHg 60%
    17:00 +4°C° 0.4 mm 4 mps 751 mmHg 63%
    18:00 +3°C° 0.4 mm 5 mps 751 mmHg 67%
    19:00 +2°C° 0.4 mm 6 mps 752 mmHg 72%
    20:00 0°C° 0.4 mm 7 mps 753 mmHg 76%
    21:00 -1°C° 0.5 mm 7 mps 753 mmHg 79%
    22:00 -1°C° 0.5 mm 6 mps 754 mmHg 81%
    23:00 -1°C° 0.5 mm 6 mps 754 mmHg 84%

    28 Marzo, Jueves

    Tiempo Temperatura Precipitaciones Viento Presión Humedad
    00:00 -1°C° 0.4 mm 5 mps 754 mmHg 85%
    01:00 -1°C° 0.4 mm 5 mps 755 mmHg 86%
    02:00 -1°C° 0.4 mm 5 mps 755 mmHg 87%
    03:00 -1°C° 0.1 mm 5 mps 756 mmHg 86%
    04:00 -2°C° 0.1 mm 5 mps 756 mmHg 84%
    05:00 -2°C° 0.1 mm 5 mps 756 mmHg 83%
    06:00 -2°C° 0 mm 5 mps 757 mmHg 81%
    07:00 -2°C° 0 mm 5 mps 758 mmHg 78%
    08:00 -2°C° 0 mm 6 mps 758 mmHg 76%
    09:00 -2°C° 0 mm 6 mps 758 mmHg 71%
    10:00 -1°C° 0 mm 6 mps 759 mmHg 66%
    11:00 +1°C° 0 mm 6 mps 759 mmHg 61%
    12:00 +2°C° 0 mm 6 mps 759 mmHg 58%
    13:00 +3°C° 0 mm 6 mps 759 mmHg 56%
    14:00 +3°C° 0 mm 6 mps 759 mmHg 53%
    15:00 +3°C° 0 mm 5 mps 759 mmHg 54%
    16:00 +3°C° 0 mm 5 mps 759 mmHg 56%
    17:00 +3°C° 0 mm 5 mps 759 mmHg 57%
    18:00 +3°C° 0 mm 4 mps 760 mmHg 61%
    19:00 +1°C° 0 mm 4 mps 760 mmHg 66%
    20:00 +1°C° 0 mm 3 mps 761 mmHg 71%
    21:00 0°C° 0 mm 3 mps 761 mmHg 72%
    22:00 0°C° 0 mm 3 mps 761 mmHg 73%
    23:00 -1°C° 0 mm 3 mps 761 mmHg 75%

    29 Marzo, Viernes

    Tiempo Temperatura Precipitaciones Viento Presión Humedad
    00:00 -1°C° 0 mm 3 mps 761 mmHg 74%
    01:00 -1°C° 0 mm 3 mps 761 mmHg 74%
    02:00 -1°C° 0 mm 3 mps 761 mmHg 74%
    03:00 -2°C° 0 mm 3 mps 761 mmHg 73%
    04:00 -2°C° 0 mm 3 mps 760 mmHg 72%
    05:00 -2°C° 0 mm 3 mps 760 mmHg 71%
    06:00 -2°C° 0 mm 4 mps 760 mmHg 66%
    07:00 0°C° 0 mm 4 mps 760 mmHg 61%
    08:00 +1°C° 0 mm 5 mps 760 mmHg 56%
    09:00 +2°C° 0 mm 6 mps 759 mmHg 52%
    10:00 +3°C° 0 mm 6 mps 758 mmHg 48%
    11:00 +5°C° 0 mm 7 mps 758 mmHg 44%
    12:00 +5°C° 0 mm 7 mps 757 mmHg 46%
    13:00 +5°C° 0 mm 8 mps 756 mmHg 48%
    14:00 +6°C° 0 mm 8 mps 755 mmHg 50%
    15:00 +5°C° 0 mm 7 mps 755 mmHg 57%
    16:00 +5°C° 0 mm 6 mps 754 mmHg 64%
    17:00 +6°C° 0 mm 5 mps 754 mmHg 70%
    18:00 +5°C° 0 mm 5 mps 754 mmHg 71%
    19:00 +3°C° 0 mm 5 mps 755 mmHg 72%
    20:00 +3°C° 0 mm 4 mps 755 mmHg 73%
    21:00 +1°C° 0 mm 4 mps 755 mmHg 75%
    22:00 +1°C° 0 mm 4 mps 756 mmHg 77%
    23:00 +1°C° 0 mm 3 mps 756 mmHg 79%

    30 Marzo, Sábado

    Tiempo Temperatura Precipitaciones Viento Presión Humedad
    00:00 +1°C° 0 mm 3 mps 756 mmHg 81%
    01:00 0°C° 0 mm 3 mps 756 mmHg 83%
    02:00 0°C° 0 mm 3 mps 756 mmHg 85%
    03:00 +1°C° 0 mm 2 mps 756 mmHg 85%
    04:00 -1°C° 0 mm 2 mps 756 mmHg 85%
    05:00 -1°C° 0 mm 2 mps 757 mmHg 85%
    06:00 +1°C° 0 mm 2 mps 757 mmHg 79%
    07:00 +3°C° 0 mm 2 mps 757 mmHg 72%
    08:00 +4°C° 0 mm 2 mps 757 mmHg 65%
    09:00 +7°C° 0 mm 1 mps 757 mmHg 59%
    10:00 +8°C° 0 mm 1 mps 757 mmHg 53%
    11:00 +9°C° 0 mm 1 mps 757 mmHg 47%
    12:00 +10°C° 0 mm 1 mps 757 mmHg 44%
    13:00 +11°C° 0 mm 1 mps 756 mmHg 41%
    14:00 +12°C° 0 mm 1 mps 756 mmHg 38%
    15:00 +12°C° 0 mm 1 mps 756 mmHg 40%
    16:00 +12°C° 0 mm 1 mps 756 mmHg 41%
    17:00 +12°C° 0 mm 1 mps 755 mmHg 42%
    18:00 +11°C° 0 mm 1 mps 755 mmHg 47%
    19:00 +9°C° 0 mm 1 mps 755 mmHg 51%
    20:00 +7°C° 0 mm 2 mps 755 mmHg 56%
    21:00 +7°C° 0 mm 2 mps 755 mmHg 58%
    22:00 +6°C° 0 mm 2 mps 755 mmHg 61%
    23:00 +5°C° 0 mm 2 mps 755 mmHg 63%
    Mostrar más